Flag for Greenland Weather past 2 weeks in Qaanaaq, Greenland

Now
10 °F

Overcast.


Feels Like: -3 °F
Forecast: -2 / 2 °F
Wind: 9 mph from Southeast

Location: Thule A. B.

Current Time: Oct 24, 2014 at 11:31:46 PM

Latest Report: Oct 24, 2014 at 10:58 PM


Visibility: N/A

Pressure: 29.62 "Hg

Humidity: 79%

Dew point: 5 °F

Location of QaanaaqLocation

Historic Weather in Qaanaaq — Graph

°F

Qaanaaq temperature yesterday

Maximum temperature yesterday: 21 °F (at 1:58 AM)
Minimum temperature yesterday: 5 °F (at 10:58 PM)
Average temperature yesterday: 16 °F

Past Weeks' High & Low Weather Summary

 TemperatureHumidityPressure
High43 °F (Oct 11, 11:58 AM)93% (Oct 11, 2:58 PM)30.13 "Hg (Oct 11, 2:58 PM)
Low1 °F (Oct 19, 6:58 PM)35% (Oct 24, 10:58 AM)29.40 "Hg (Oct 22, 11:58 PM)
Average18 °F78%29.79 "Hg
* Reported Oct 9 9:58 PM — Oct 24 9:58 PM, Qaanaaq, Weather by CustomWeather, © 2014

Note: Actual official high and low records may vary slightly from our data, if they occured in-between our weather recording intervals... More about our weather records

Advertising

Qaanaaq weather history for previous 24 hours

 ConditionsComfort  
Time TempWeatherWind HumidityBarometerVisibility
9:58 PM
Oct 24
10 °FPassing clouds.7 mph79%29.60 "HgN/A
8:58 PM10 °FOvercast.9 mph85%29.59 "HgN/A
7:58 PM7 °FPassing clouds.10 mph85%29.58 "HgN/A
6:58 PM7 °FPassing clouds.9 mph85%29.56 "HgN/A
5:58 PM9 °FPartly sunny.7 mph85%29.54 "HgN/A
4:58 PM18 °FSunny.16 mph73%29.53 "HgN/A
3:58 PM12 °FScattered clouds.17 mph73%29.53 "HgN/A
2:58 PM5 °FSunny.6 mph66%29.51 "HgN/A
1:58 PM5 °FSunny.3 mph66%29.50 "HgN/A
12:58 PM9 °FClear.2 mph56%29.50 "HgN/A
11:58 AM18 °FClear.7 mph38%29.50 "HgN/A
10:58 AM18 °FClear.14 mph35%29.49 "HgN/A
9:58 AM18 °FClear.14 mph38%29.51 "HgN/A
8:58 AM12 °FClear.No wind52%29.51 "HgN/A
7:58 AM7 °FClear.No wind61%29.50 "HgN/A
6:58 AM10 °FClear.6 mph52%29.49 "HgN/A
5:58 AM7 °FClear.10 mph61%29.48 "HgN/A
4:58 AM3 °FClear.8 mph66%29.48 "HgN/A
3:58 AM7 °FClear.6 mph61%29.47 "HgN/A
2:58 AM5 °FClear.10 mph60%29.46 "HgN/A
1:58 AM7 °FClear.9 mph61%29.45 "HgN/A
12:58 AM7 °FClear.8 mph61%29.45 "HgN/A
11:58 PM
Oct 23
5 °FClear.9 mph66%29.46 "HgN/A
Weather by CustomWeather, © 2014

See weather overviewHow to use our weather pages